GEFSGL_500_meanwind_252.txt.gz
Wind_Speed
17 17 16 16 15 15 14 15 15 15 15 16 16 17 16 16 16 16 15 15 15 15 15 15 15 15 15 14 14 15 14 14 15 15 16 16 16 17 17 17 16 16 16
17 17 16 16 16 15 15 16 16 17 17 16 16 17 17 17 16 16 16 16 16 16 16 16 16 16 16 16 15 15 15 15 15 15 16 16 16 17 16 16 17 17 16
16 16 16 17 17 17 17 17 18 18 18 17 17 18 18 18 18 17 17 17 17 17 17 17 17 17 17 16 16 16 16 16 16 16 16 16 16 16 16 16 17 17 17
17 17 17 17 18 18 18 18 18 18 18 19 19 19 19 19 19 18 18 18 18 18 18 18 17 17 17 17 17 17 16 16 16 16 16 16 16 16 16 16 17 17 17
17 17 18 19 19 19 19 19 20 20 20 20 19 19 19 19 19 19 19 19 19 18 18 18 18 18 18 17 17 17 17 17 17 17 17 16 16 17 17 18 17 18 19
19 19 19 20 20 20 20 20 20 20 20 20 20 20 20 19 19 19 19 19 19 19 19 19 19 19 19 18 18 17 17 17 17 16 16 16 17 17 17 18 18 19 19
20 20 20 21 21 21 21 21 21 21 21 21 20 20 20 20 19 19 19 19 19 19 19 19 19 19 19 19 19 19 18 18 17 17 17 17 17 18 19 19 19 20 20
20 20 20 21 21 21 21 21 21 21 21 21 20 20 20 20 20 20 19 19 19 20 20 20 20 20 20 20 19 19 19 19 19 19 19 19 19 19 19 20 20 20 20
21 21 20 20 21 21 20 20 20 20 21 21 20 20 20 20 20 20 21 21 21 21 20 20 20 20 20 20 19 19 19 19 20 20 21 21 21 21 21 22 22 22 22
22 22 22 21 21 21 21 20 20 20 21 21 21 21 21 20 20 20 20 20 20 20 21 21 21 21 21 21 20 19 20 20 20 21 21 21 22 22 23 23 23 23 22
22 22 22 22 21 21 21 20 21 21 21 21 22 22 21 21 20 21 21 21 21 21 21 21 21 21 21 20 20 20 20 20 21 21 21 21 22 22 23 22 22 23 23
22 22 22 21 21 21 21 21 21 22 22 22 22 22 21 21 21 21 21 21 21 21 21 21 20 20 20 21 21 22 21 21 22 22 22 22 23 23 23 22 23 23 24
22 22 22 22 22 22 22 22 22 22 23 23 22 22 22 22 22 22 22 22 22 22 22 21 21 21 21 21 21 22 23 23 23 23 23 23 23 24 24 24 25 25 25
23 23 23 22 22 23 23 24 23 23 24 23 23 23 23 23 23 23 23 23 23 23 24 24 24 24 24 24 23 23 24 24 24 24 23 23 24 25 25 26 26 26 26
26 25 25 24 24 24 24 24 24 24 24 24 24 24 24 24 24 24 24 24 24 24 25 25 25 25 25 25 26 25 25 25 25 25 26 25 25 26 26 26 26 27 27
27 27 27 26 26 26 26 26 26 25 25 25 25 25 25 26 25 25 26 25 25 25 25 25 25 25 25 25 26 26 26 26 26 26 27 27 26 26 26 26 27 27 27
26 27 27 27 28 27 27 27 27 27 27 26 26 26 26 26 26 26 26 26 26 25 26 26 26 26 26 26 27 27 27 27 27 27 27 27 27 27 27 27 27 27 27
26 27 27 28 28 28 28 27 27 27 27 27 27 27 26 26 27 27 27 27 26 26 26 26 27 27 27 27 27 27 27 28 28 27 27 27 27 27 27 28 28 28 28
27 26 26 27 28 28 28 28 28 27 27 27 26 27 27 27 27 27 27 27 27 27 27 27 27 27 27 27 28 28 28 28 28 28 28 28 28 28 28 28 28 28 29
27 27 27 27 27 27 27 27 27 27 27 27 27 27 27 27 27 27 28 28 28 28 28 27 27 28 28 28 29 29 29 29 29 29 29 29 29 29 29 29 29 29 30
28 28 28 27 27 27 28 28 28 28 28 28 27 27 28 28 28 28 28 29 29 29 29 29 30 29 29 30 30 31 31 30 30 30 30 30 30 31 31 31 31 30 30
28 28 28 28 28 28 28 28 28 28 29 29 29 28 29 29 30 30 30 30 30 30 30 31 31 31 31 31 31 32 32 31 31 31 31 31 31 31 32 32 31 31 31
29 28 28 28 28 28 29 29 29 29 29 29 29 30 30 30 31 31 31 32 32 32 32 32 33 33 32 33 32 32 32 32 31 31 32 32 32 32 32 32 33 33 32
29 29 29 29 29 29 29 29 29 29 29 29 30 30 31 32 32 32 32 32 32 32 32 32 33 33 34 33 33 32 32 32 32 32 33 33 32 32 32 32 33 33 33
29 29 29 29 29 29 29 29 28 29 29 30 30 30 31 31 32 32 32 32 32 32 32 32 33 33 33 33 33 33 32 33 33 33 33 34 34 34 34 34 33 33 32
29 29 28 28 28 28 28 28 29 29 30 30 31 31 31 31 31 31 31 31 31 32 32 32 32 32 32 33 32 32 32 33 34 34 34 34 34 34 34 34 34 33 33

GEFSGL_500_meanwind_258.txt.gz
Wind_Speed
18 18 19 18 18 18 18 18 18 18 18 18 18 18 18 17 17 16 16 17 17 17 17 17 17 16 16 15 15 15 15 16 16 16 17 16 16 17 17 16 16 16 16
19 20 20 19 19 19 19 19 19 18 18 19 19 19 18 18 17 18 18 18 18 17 17 18 17 17 17 16 16 16 16 16 16 17 17 16 17 16 16 17 17 17 17
19 20 20 20 20 20 19 19 20 19 19 19 19 19 18 18 18 19 18 18 18 18 18 18 18 18 18 18 17 17 17 17 17 17 16 16 16 17 16 17 17 17 17
19 19 20 20 19 19 19 19 19 20 19 20 20 19 19 19 19 19 19 18 19 19 20 19 20 19 19 19 18 17 17 17 17 17 17 17 16 17 17 17 17 17 17
19 19 19 19 19 19 20 20 20 20 20 20 20 20 21 20 20 20 20 20 19 19 20 20 20 20 19 19 18 18 18 17 17 17 17 17 17 17 17 17 17 18 18
20 20 19 19 20 20 20 20 21 21 21 21 21 21 21 21 20 21 21 21 20 20 20 20 20 20 20 19 18 18 18 18 18 18 17 17 17 17 17 17 18 18 18
20 20 20 20 20 21 21 21 21 21 22 22 22 21 21 21 21 22 22 22 21 21 20 19 19 19 20 19 19 20 19 19 19 18 17 18 18 18 18 18 18 19 18
21 21 21 21 21 22 21 22 22 22 22 22 22 22 22 22 23 23 22 22 22 21 21 21 20 20 20 20 20 20 19 19 19 19 18 18 19 19 19 19 19 19 20
22 22 23 23 23 22 22 22 22 22 22 23 23 22 22 22 22 22 23 22 21 21 21 21 21 21 21 21 21 20 20 20 20 20 20 20 20 20 20 20 20 20 20
23 23 23 23 23 23 23 24 24 23 23 22 22 22 22 22 23 23 23 22 22 22 22 22 22 21 21 21 21 20 20 20 20 20 20 20 20 21 21 21 21 21 21
24 24 24 24 24 24 24 24 24 24 24 23 23 23 24 24 24 24 24 23 23 23 23 23 23 22 22 22 21 21 21 21 21 21 21 21 21 21 22 23 22 23 23
24 24 24 24 24 24 25 25 25 24 24 24 25 25 25 25 25 25 25 25 24 24 24 24 23 23 23 23 22 22 22 22 22 22 22 22 22 23 23 23 24 24 23
23 24 24 25 25 25 25 25 24 25 25 25 26 26 26 26 26 26 26 26 26 25 25 24 24 24 24 24 23 23 23 23 23 23 24 24 24 24 25 25 25 24 24
23 23 24 24 25 25 25 25 25 26 26 26 26 26 27 27 27 28 27 27 27 26 26 25 25 25 25 25 24 24 24 24 24 25 25 25 26 26 26 26 25 25 25
24 24 25 25 26 25 25 25 25 26 26 26 26 26 26 27 27 27 28 28 27 27 27 26 26 26 26 26 26 26 26 26 26 26 26 27 27 27 27 26 26 26 26
25 26 26 26 26 25 25 24 25 25 25 25 26 26 26 26 27 27 28 28 28 28 27 27 27 27 27 27 27 26 26 26 26 26 26 26 26 27 27 27 27 27 27
26 26 26 26 26 26 26 26 27 27 27 27 27 27 27 27 28 28 28 28 28 29 29 29 28 28 27 27 27 27 27 26 26 26 26 26 27 27 27 27 26 26 26
26 26 26 26 27 27 28 28 28 28 28 28 28 28 28 28 28 28 28 29 29 29 29 29 29 28 28 27 27 27 27 28 28 28 28 28 28 28 27 27 27 27 27
26 26 26 27 27 28 28 29 28 28 28 28 28 29 29 29 29 29 29 29 29 29 29 29 28 28 28 28 29 29 29 29 29 30 30 30 29 29 29 28 29 29 29
27 28 28 28 28 28 28 29 28 28 28 28 29 29 29 29 29 29 29 29 29 29 29 28 28 28 28 28 29 30 30 31 31 31 31 31 31 31 30 30 30 30 30
28 29 29 29 29 29 28 28 28 28 29 28 29 29 29 30 29 29 29 29 29 28 28 28 28 28 28 29 29 29 30 30 31 31 31 31 31 31 31 31 31 32 31
28 29 30 30 30 30 29 28 28 28 28 29 28 29 29 29 29 29 29 30 30 29 29 28 28 28 28 29 29 30 30 31 31 31 31 31 31 31 31 31 31 32 32
28 29 29 30 30 29 29 29 29 29 29 29 29 29 29 30 30 30 30 30 29 30 29 29 29 28 29 30 30 30 30 31 32 32 32 32 32 31 32 32 32 33 33
28 29 29 30 30 29 29 29 29 29 29 29 29 29 29 30 30 30 31 31 31 30 30 30 29 30 30 30 31 31 32 32 32 32 33 33 33 32 33 33 34 34 35
28 28 29 29 29 29 29 29 30 30 30 30 29 29 29 28 29 29 30 31 31 31 31 31 31 31 31 32 32 33 33 33 33 33 34 34 34 34 34 35 35 36 36
28 28 28 29 29 29 29 29 29 29 30 29 29 29 29 29 30 31 31 31 31 31 31 31 31 31 32 32 33 34 34 35 34 34 34 35 35 35 35 36 36 37 37

GEFSGL_500_meanwind_264.txt.gz
Wind_Speed
16 16 16 17 17 18 17 18 17 18 17 16 16 16 16 16 16 16 17 17 17 17 18 17 16 16 16 17 17 17 17 17 17 16 15 15 16 16 16 16 15 16 16
17 17 18 18 18 18 18 18 18 18 17 17 17 17 17 16 16 17 18 18 17 17 17 17 16 16 17 18 18 17 17 17 17 16 16 16 16 16 16 16 16 16 16
18 18 18 18 19 18 18 18 18 17 17 17 17 17 17 18 18 18 18 18 18 18 18 17 17 17 17 17 17 17 17 17 17 16 16 16 16 16 16 16 16 16 15
18 18 18 19 18 18 18 18 17 17 17 18 18 19 19 19 20 20 19 18 18 18 19 19 18 18 17 17 17 17 17 17 17 17 16 17 17 17 17 16 16 16 15
19 19 19 19 19 19 18 18 17 17 17 17 18 19 20 19 20 20 19 20 20 20 19 19 18 18 18 17 18 18 18 18 18 18 18 17 17 17 17 17 16 16 16
21 20 19 19 19 19 19 19 19 19 19 18 19 20 20 20 20 20 21 21 20 20 19 19 19 19 19 18 18 18 18 18 18 18 18 18 18 18 17 17 17 17 17
20 20 20 20 20 19 20 20 20 20 20 20 20 20 20 20 20 21 21 21 21 20 20 20 20 20 20 19 19 19 18 18 18 18 19 19 19 19 19 19 19 19 18
21 21 21 20 20 20 21 21 21 22 22 22 21 21 21 21 21 22 22 22 22 22 22 22 21 21 20 19 19 19 19 19 19 19 19 20 20 20 20 20 19 20 20
22 21 21 22 22 22 22 22 23 23 23 23 22 22 22 22 22 22 23 23 22 23 23 23 22 22 21 21 21 21 20 20 21 20 20 20 20 20 20 21 20 20 20
23 23 22 23 23 23 23 23 23 23 23 23 23 23 23 24 23 23 22 22 22 23 23 23 23 23 23 23 22 22 22 22 22 22 22 22 22 22 22 22 21 20 20
23 23 23 23 22 23 23 23 23 23 24 24 24 24 25 25 24 24 24 23 24 23 23 23 23 23 23 23 23 23 23 23 23 23 23 24 24 24 23 23 23 22 22
23 23 22 23 23 23 24 24 24 24 25 25 25 25 25 24 24 24 25 25 24 24 24 25 25 25 24 24 24 24 24 24 24 24 25 25 25 26 25 25 24 24 24
23 23 23 23 23 24 24 24 24 24 24 24 25 25 24 24 25 25 25 26 26 26 26 27 27 26 26 26 26 26 26 26 25 25 25 25 25 25 25 25 25 25 25
22 23 23 23 24 24 24 24 24 24 24 24 24 24 24 24 25 25 25 25 26 26 27 28 28 27 27 27 27 26 26 26 26 26 26 26 26 25 25 25 25 25 25
23 23 23 24 24 24 24 24 24 24 23 23 23 23 23 24 24 25 25 25 26 26 27 28 28 28 28 28 27 27 28 28 28 27 28 28 28 27 27 27 26 26 26
24 25 25 25 25 25 25 24 23 23 23 24 24 24 24 24 24 25 25 25 26 27 27 27 27 27 28 28 28 29 29 30 30 30 30 31 30 30 29 29 28 28 27
24 25 26 26 26 25 25 24 24 24 24 25 25 26 26 25 25 26 26 27 27 28 27 27 27 28 28 28 29 29 30 30 30 30 31 31 32 32 31 31 30 30 29
25 25 25 25 25 25 25 25 25 25 25 26 26 27 27 27 27 27 28 28 28 28 28 28 28 28 28 29 29 29 30 30 31 31 31 31 31 32 32 31 31 31 31
25 25 25 25 25 25 25 25 25 26 26 27 27 27 27 27 27 28 28 29 28 28 28 28 29 29 29 29 30 29 29 30 31 31 32 31 31 32 31 31 31 31 31
25 25 25 25 25 25 25 25 26 26 26 26 27 27 27 27 27 28 28 28 28 28 28 29 29 29 29 29 29 29 29 30 30 31 31 31 31 31 30 30 30 31 31
26 26 26 26 25 25 25 25 26 26 27 27 27 27 27 27 27 28 28 28 28 28 28 29 28 28 28 28 28 28 28 29 29 29 29 30 30 31 31 31 31 32 32
25 25 26 27 27 27 26 26 27 26 26 27 26 26 27 27 28 28 28 29 29 29 29 29 29 28 28 28 27 27 28 28 28 29 29 29 30 30 31 32 32 32 32
27 27 27 27 27 27 27 27 27 27 27 28 28 28 28 28 29 29 28 29 29 29 29 29 29 28 28 28 28 28 28 28 29 29 29 29 30 30 31 31 32 32 32
27 27 27 27 27 27 27 28 28 28 28 28 28 28 28 29 29 29 29 29 29 29 29 29 28 28 28 29 29 29 29 30 30 30 30 29 30 30 30 30 30 31 31
27 27 27 27 27 27 27 28 28 28 28 28 28 28 28 29 29 29 29 29 30 29 28 29 28 28 28 29 29 29 30 30 30 29 29 29 30 30 30 30 30 31 32
28 27 27 27 27 27 27 26 27 27 28 28 28 28 28 28 29 29 28 29 29 29 29 29 29 29 29 29 29 29 29 29 29 29 29 29 29 29 29 30 31 31 32

GEFSGL_500_meanwind_270.txt.gz
Wind_Speed
20 20 20 20 20 20 20 19 19 19 19 18 18 18 18 18 18 18 18 17 18 19 19 19 19 18 19 19 18 18 18 18 18 18 18 18 18 18 18 17 17 16 16
20 20 20 20 20 20 20 20 20 20 19 18 19 19 19 19 19 19 19 19 19 19 19 20 20 20 19 19 19 18 18 18 19 19 18 18 18 18 17 17 17 17 17
20 20 20 20 20 21 20 20 20 20 19 19 19 20 20 20 20 20 20 20 21 21 21 21 20 20 19 19 19 19 18 19 19 19 18 18 18 18 18 17 17 17 18
20 20 20 20 20 20 20 21 21 21 21 20 20 20 20 20 20 20 20 21 22 22 22 21 21 20 20 20 19 19 19 20 20 19 19 18 18 18 18 18 18 17 18
20 20 20 21 21 21 21 21 22 22 22 21 21 21 20 20 20 20 21 21 21 22 22 22 21 20 20 20 20 20 20 20 20 20 20 19 18 18 18 18 18 19 19
21 20 20 21 21 22 22 22 22 22 22 21 21 21 21 21 21 21 22 22 22 23 22 22 21 20 21 21 21 21 21 20 20 20 20 19 19 19 18 19 19 20 20
21 21 21 21 21 21 21 22 22 22 22 21 20 21 22 22 22 23 23 23 23 23 22 22 22 22 22 22 22 21 21 21 21 21 20 20 20 20 20 20 20 20 21
21 21 22 21 21 21 21 21 21 22 21 21 21 22 22 23 23 23 23 23 24 23 23 23 24 23 23 23 22 22 22 22 22 22 21 21 21 22 22 21 21 21 22
21 21 21 21 21 21 21 22 22 22 22 22 22 22 23 24 24 25 25 24 24 24 24 24 24 24 24 23 23 22 22 23 23 22 22 22 21 22 22 22 22 22 22
21 20 20 20 21 21 22 22 22 22 23 23 23 24 24 24 24 24 24 24 24 24 24 23 23 23 23 23 23 23 24 24 24 23 23 23 23 23 23 23 23 23 22
21 20 20 21 21 22 22 22 23 23 24 24 24 24 24 24 24 25 25 25 24 24 24 24 24 24 23 23 24 24 25 25 25 26 26 25 25 25 25 25 25 24 24
21 21 21 21 22 23 23 24 24 25 25 25 25 24 25 25 26 26 25 25 25 25 25 25 25 25 25 25 25 26 26 26 26 27 27 27 27 26 26 26 27 27 26
22 22 22 22 22 23 24 24 25 26 26 26 26 25 25 25 25 25 25 25 26 26 25 26 26 26 26 27 26 26 27 27 27 27 27 27 28 28 28 28 28 28 29
23 23 23 23 23 24 24 25 26 26 27 26 26 26 25 26 26 25 25 25 26 26 25 25 26 26 26 27 27 28 28 28 28 29 29 29 29 30 30 31 31 30 30
24 24 24 24 24 24 25 26 26 26 26 26 26 26 26 26 26 27 27 26 26 26 26 26 26 26 26 27 28 29 29 29 29 29 29 30 30 31 31 31 32 32 32
24 24 24 25 25 25 26 26 26 26 26 26 27 27 27 27 27 27 27 27 27 27 26 26 27 27 27 28 29 29 28 29 29 30 30 30 31 31 31 31 32 32 32
26 26 26 26 26 26 26 27 26 26 26 26 27 27 27 27 27 27 27 27 27 27 26 26 27 28 28 28 29 29 29 29 29 30 30 30 31 31 31 32 32 32 32
27 27 27 27 27 27 27 27 27 27 27 26 27 27 27 27 27 27 28 28 27 27 27 27 27 27 28 28 28 28 28 29 29 30 30 31 31 31 31 32 32 32 32
28 28 28 28 28 28 28 28 27 27 27 27 26 26 27 27 27 28 28 28 27 27 27 27 27 27 28 28 29 29 29 29 29 30 30 30 31 31 31 31 32 32 32
28 28 29 29 29 29 28 28 28 28 28 27 27 27 28 28 27 27 27 28 28 28 28 28 28 28 28 29 29 29 29 29 29 29 30 30 30 30 31 31 31 31 31
30 29 29 29 30 30 29 28 28 27 28 28 27 28 27 27 27 26 26 27 27 27 28 28 29 29 29 29 29 29 29 29 29 29 29 29 29 29 29 29 29 29 29
29 30 30 30 31 30 29 28 28 28 28 28 28 28 27 27 26 26 26 27 27 27 28 28 28 28 28 28 28 28 28 27 27 28 28 28 28 28 28 28 28 28 28
30 30 31 31 31 30 30 29 29 29 30 29 29 28 28 28 28 27 27 27 27 28 28 28 28 28 28 28 28 28 28 27 27 27 27 27 28 27 27 27 27 27 28
31 31 31 30 30 30 29 29 29 30 30 30 29 30 29 29 28 28 28 28 28 28 29 28 28 28 28 28 28 27 27 27 27 27 27 27 28 28 27 27 26 27 28
31 31 30 30 30 30 30 29 29 29 29 30 30 30 29 29 28 28 28 28 28 28 28 28 28 29 29 29 29 28 28 28 28 28 28 28 28 28 27 27 27 27 28
30 30 30 30 30 29 29 29 29 30 29 29 29 29 29 28 28 28 28 28 28 28 27 27 28 28 28 28 29 29 28 28 29 29 28 28 28 28 28 28 28 29 30